sat.trackr.live / text

‹ back to catalog

GRUS-3ALPHA

NORAD 64579 · 2025-135BD

PAYLOAD ACTIVE UNKNOWN

§ Identity

Operator
Country
JPN
Launch date
2025-06-23
Launch site
AFWTR
Launch vehicle
Mass (kg)
RCS (m²)

External: N2YO · Heavens-Above · Gunter

§ Orbital elements

Epoch: 2026-09-21T22:04:52.689792Z

Period
96.43 min
Inclination
97.7846°
Eccentricity
0.0003892
Mean motion
14.93330072 rev/d
Perigee alt
584.8 km
Apogee alt
590.3 km
Semi-major
6,965.7 km
B*
9.1782e-5
RAAN
18.1362°
Arg perigee
51.6100°
Mean anomaly
308.5469°
Rev number
6,831

§ Raw data

GRUS-3ALPHA1 64579U 25135BD  26264.92005428  .00000905  00000+0  91782-4 0  99912 64579  97.7846  18.1362 0003892  51.6100 308.5469 14.93330072 68315

JSON: /api/v1/satellites/64579 · /tle

For live sub-satellite position, see the globe view (requires WebGL).

§ Visibility from observer

Set your observer location to see the next 7 days of passes ≥ 10°. The values pass through the URL so the page stays shareable.

No JS? Fill the form by hand. The geolocation button needs JavaScript.

§ Radio — SatNOGS DB

ModeDescriptionDownlinkUplink
FM S-band telemetry 2.276 GHz

1 transmitter · refreshed weekly from db.satnogs.org